Terminal Aerodrome Forecast
Issued by NWS Cleveland, OH

Home | Current Version | Previous Version | Text Only | Print | Product List | Glossary On
Versions: 1 2 3 4 5 6 7 8 9 10 11 12 13 14 15 16 17 18
000
FTUS41 KCLE 211300 AAB
TAFTOL
TAF AMD
KTOL 211344Z 2114/2212 25015G25KT P6SM SCT015 BKN035
      TEMPO 2114/2118 BKN015 OVC025
     FM211800 30015G22KT P6SM VCTS BKN035CB
      TEMPO 2119/2123 5SM -SHRA OVC035
     FM220000 33010KT P6SM BKN030=

USA.gov is the U.S. government's official web portal to all federal, state and local government web resources and services.